Hurghada, Egypt

2:21 AM EET on July 28, 2017 (GMT +0200)
Hurghada

Weather History for HEGN - April, 2013

Change the Weather History Date:

Saturday, April 27, 2013

  Actual Average Record
Temperature  
Mean Temperature 80 °F -  
Max Temperature 93 °F 88 °F 99 °F (2015)
Min Temperature 68 °F 71 °F 62 °F (2003)
Cooling Degree Days 16    
Growing Degree Days 30 (Base 50)    
Moisture  
Dew Point 49 °F    
Average Humidity 33    
Maximum Humidity 65    
Minimum Humidity 17    
Precipitation  
Precipitation 0.00 in - - ()
Sea Level Pressure  
Sea Level Pressure 29.75 in    
Wind  
Wind Speed 11 mph ()    
Max Wind Speed 18 mph    
Max Gust Speed -    
Visibility 4.9 miles    
Events      
Averages and records for this station are not official NWS values.
T = Trace of Precipitation, MM = Missing Value Source: Averaged Metar Reports

Daily Weather History Graph

Daily Weather History Graph

Search for Another Location

Airport or City:

Trip Planner

Search our weather history database for the weather conditions in past years. The results will help you decide how hot, cold, wet, or windy it might be!

Date:

Astronomy

Apr. 27, 2013 Rise Set
Actual Time 5:09 AM EET 6:16 PM EET
Civil Twilight 4:45 AM EET 6:40 PM EET
Nautical Twilight 4:16 AM EET 7:09 PM EET
Astronomical Twilight 3:47 AM EET 7:39 PM EET
Moon 8:13 PM EET (4/27) 6:17 AM EET (4/27)
Length of Visible Light 13h 54m
Length of Day
13h 06m
Waning Gibbous, 96% of the Moon is Illuminated
Apr 27
Waning Gibbous
May 2
Last Quarter
May 10
New
May 18
First Quarter
May 25
Full

Hourly Weather History & Observations

Time (EET) Temp. Heat Index Dew Point Humidity Pressure Visibility Wind Dir Wind Speed Gust Speed Precip Events Conditions
12:00 AM 75.2 °F - 39.2 °F 27% 29.74 in - WNW 16.1 mph - N/A   Clear
1:00 AM 75.2 °F - 39.2 °F 27% 29.71 in - WNW 18.4 mph - N/A   Clear
2:00 AM 75 °F - 40 °F 18% 29.72 in 6 mi NW 17.3 mph - -  
2:00 AM 75.2 °F - 39.2 °F 27% 29.71 in - NW 17.3 mph - N/A   Clear
3:00 AM 71.6 °F - 35.6 °F 27% 29.71 in - NNW 11.5 mph - N/A   Clear
4:00 AM 69.8 °F - 35.6 °F 28% 29.71 in - NW 5.8 mph - N/A   Clear
5:00 AM 68.0 °F - 33.8 °F 28% 29.71 in - NNW 6.9 mph - N/A   Clear
6:00 AM 69.8 °F - 30.2 °F 23% 29.74 in - NNW 9.2 mph - N/A   Clear
7:00 AM 73.4 °F - 39.2 °F 29% 29.77 in - NNW 13.8 mph - N/A   Clear
8:00 AM 78 °F - 49 °F 25% 29.79 in 6 mi NNW 13.8 mph - -  
8:00 AM 78.8 °F - 48.2 °F 34% 29.77 in - NNW 13.8 mph - N/A   Clear
9:00 AM 80.6 °F - 51.8 °F 37% 29.80 in - North 15.0 mph - N/A   Clear
9:03 AM 80.6 °F - 51.8 °F 37% 29.80 in - North 15.0 mph - N/A   Clear
10:00 AM 84.2 °F 83.0 °F 55.4 °F 37% 29.80 in - North 16.1 mph - N/A   Clear
11:00 AM 84.2 °F 83.5 °F 57.2 °F 40% 29.80 in - North 18.4 mph - N/A   Clear
12:00 PM 91.4 °F - 51.8 °F 26% 29.77 in - North 13.8 mph - N/A   Clear
1:00 PM 93.2 °F 90.8 °F 53.6 °F 26% 29.77 in 3.7 mi North 8.1 mph - N/A   Unknown
2:00 PM 93 °F - 53 °F 17% 29.76 in 4 mi NNE 9.2 mph - -   Haze
2:00 PM 93.2 °F 90.8 °F 53.6 °F 26% 29.74 in 3.7 mi NNE 9.2 mph - N/A   Unknown
3:00 PM 91.4 °F 89.4 °F 55.4 °F 29% 29.74 in 5.0 mi NNE 5.8 mph - N/A   Unknown
4:00 PM 93.2 °F - 51.8 °F 24% 29.71 in 5.0 mi North 6.9 mph - N/A   Unknown
5:00 PM 91.4 °F 89.1 °F 53.6 °F 28% 29.71 in 5.0 mi North 5.8 mph - N/A   Unknown
6:00 PM 86.0 °F 84.2 °F 53.6 °F 33% 29.74 in 5.0 mi North 5.8 mph - N/A   Unknown
7:00 PM 80.6 °F 80.3 °F 53.6 °F 39% 29.74 in 5.0 mi North 5.8 mph - N/A   Unknown
8:00 PM 77 °F - 63 °F 52% 29.76 in 6 mi North 3.5 mph - -  
8:00 PM 77.0 °F - 62.6 °F 61% 29.74 in - North 3.5 mph - N/A   Clear
9:00 PM 75.2 °F - 62.6 °F 65% 29.77 in - Calm Calm - N/A   Clear
10:00 PM 75.2 °F - 55.4 °F 50% 29.77 in - North 5.8 mph - N/A   Clear
11:00 PM 75.2 °F - 53.6 °F 47% 29.77 in - NNW 3.5 mph - N/A   Clear